Overview Statistics Trail Chart Weather Telemetry Raw packets
 

This is the latest recevied weather packets stored in our database for station/object S51UL-6. If no packets are shown the sender has not sent any weather packets the latest 10 day(s).

<< 76 77 78 79 80 81 82 >>
Time Temp. Humidity Pressure Rain* Wind** Luminosity Snow
1787914961 32.22° C 53% 1015.2 hPa 0 mm - - -
1787914661 31.67° C 55% 1015.3 hPa 0 mm - - -
1787913461 30° C 58% 1015.7 hPa 0 mm - - -
1787912861 28.89° C 59% 1016.1 hPa 0 mm - - -
1787912562 28.89° C 60% 1016.1 hPa 0 mm - - -
1787912262 28.33° C 61% 1016.1 hPa 0 mm - - -
1787911961 28.33° C 62% 1016.2 hPa 0 mm - - -
1787911662 27.78° C 62% 1016.2 hPa 0 mm - - -
1787911063 27.78° C 61% 1016.2 hPa 0 mm - - -
1787910461 27.78° C 60% 1016.3 hPa 0 mm - - -
1787910162 27.78° C 61% 1016.6 hPa 0 mm - - -
1787909862 27.78° C 61% 1016.6 hPa 0 mm - - -
1787909562 27.22° C 61% 1016.8 hPa 0 mm - - -
1787908962 27.78° C 61% 1017 hPa 0 mm - - -
1787908662 27.78° C 62% 1016.8 hPa 0 mm - - -
1787908366 27.22° C 63% 1016.7 hPa 0 mm - - -
1787908062 26.67° C 63% 1016.7 hPa 0 mm - - -
1787907763 26.67° C 63% 1016.6 hPa 0 mm - - -
1787907165 26.11° C 65% 1016.7 hPa 0 mm - - -
1787906862 26.11° C 65% 1016.7 hPa 0 mm - - -
1787906564 26.11° C 66% 1017 hPa 0 mm - - -
1787906262 26.11° C 66% 1017.3 hPa 0 mm - - -
1787905964 25.56° C 66% 1017.2 hPa 0 mm - - -
1787905363 25.56° C 68% 1016.9 hPa 0 mm - - -
1787905063 25.56° C 69% 1016.8 hPa 0 mm - - -

* Rain latest hour (hover to see other rain measurements)
** Current wind speed in m/s (hover to see current wind gust speed)